[[{"header":{"parameterUnit":"m.s-1","parameterCategory":1,"la1":30.2991,"la2":30.254,"lo1":-89.0895,"lo2":-89.0444,"dy":0.0017,"dx":0.0017,"nx":28,"ny":28,"refTime":"2026-01-02T03:00:00:Z","depth":0,"parameterNumber":2,"parameterNumberName":"U-component_of_WINDS"},"data":[0,0,0,0,0,0,0,0,0,0,0,0,0,0,0,0,0,0,0,0,0,0,0,0,0,0,0,0,0,0,0,0,0,0,0,0,0,0,0,0,0,0,0,0,0,0,0,0,0,0,0,0,0,0,0,0,0,0,4.236,4.2362,0,4.2565,4.2567,4.2569,4.254,4.2536,4.2533,4.2529,4.2742,4.2751,4.276,0,0,0,0,0,0,0,0,0,0,0,0,0,4.1944,4.1952,4.2359,4.2362,4.2364,4.2564,4.2567,4.257,4.254,4.2536,4.2532,4.2528,4.2739,4.275,4.2761,0,0,0,0,0,0,0,0,0,0,0,0,0,4.2135,4.1955,4.2359,4.2374,4.2377,4.2564,4.2567,4.2571,4.2541,4.2536,4.2531,4.2526,4.2736,4.2749,4.2762,4.2948,0,0,4.2803,4.2809,0,0,0,0,0,0,0,0,4.2124,4.215,4.2369,4.2373,4.2377,4.2521,4.2499,4.2697,4.2542,4.2479,4.2529,4.2523,4.2673,4.2691,4.2741,4.2958,4.2967,4.2804,4.2812,4.2818,4.2822,0,0,0,0,0,0,0,4.2111,4.2141,4.2441,4.2372,4.2377,4.2371,4.2392,4.2536,4.2603,4.2484,4.2482,4.2507,4.2674,4.2729,4.2746,4.297,4.2804,4.2815,4.2824,4.2829,4.3349,4.3355,0,0,0,0,0,0,4.2093,4.213,4.2434,4.2447,4.2235,4.2383,4.2406,4.248,4.2601,4.2614,4.2511,4.2505,4.2708,4.2731,4.2753,4.2978,4.2818,4.283,4.2838,4.3344,4.3351,4.3357,0,0,0,0,0,0,4.2084,4.2121,4.2426,4.2288,4.2326,4.2395,4.2478,4.2487,4.2541,4.2621,4.2633,4.2554,4.2705,4.2735,4.29,4.2985,4.2836,4.2848,4.3337,4.3346,4.3354,4.3429,0,0,0,0,0,0,4.2073,4.2118,4.2188,4.229,4.2334,4.2568,4.2484,4.2495,4.2564,4.2557,4.2665,4.2678,4.2703,4.288,4.2913,4.3001,4.2859,4.3329,4.3341,4.3351,4.3419,4.3439,4.3457,0,0,0,0,0,4.2058,4.2202,4.2192,4.2229,4.2423,4.2573,4.2598,4.2624,4.2571,4.2642,4.2694,4.2674,4.2971,4.2897,4.2934,4.3027,4.3324,4.3338,4.335,4.3411,4.3435,4.3456,0,0,0,0,0,0,4.2109,4.2215,4.2205,4.2386,4.2471,4.2567,4.2658,4.2649,4.275,4.274,4.2769,4.2794,4.296,4.3011,4.2926,4.3213,4.314,4.3161,4.3174,4.3198,4.3216,4.32,4.287,0,0,0,0,0,4.2141,4.2253,4.234,4.2491,4.2534,4.2589,4.2655,4.2668,4.2757,4.2792,4.2856,4.2944,4.3057,4.313,4.3239,4.3427,4.345,4.351,4.3528,4.3543,4.3561,4.3664,4.3691,4.34,4.34,4.34,0,0,4.2209,4.2281,4.235,4.2504,4.257,4.2685,4.2619,4.2744,4.283,4.2812,4.297,4.3021,4.3121,4.3298,4.3379,4.3345,4.3646,4.356,4.3571,4.3581,4.368,4.3707,4.3732,4.3409,4.3407,4.3406,0,0,4.2391,4.2457,4.259,4.2658,4.276,4.2796,4.2828,4.2926,4.2959,4.3118,4.3107,4.321,4.3404,4.3475,4.3537,4.3748,4.3733,4.3782,4.3879,4.3979,4.4002,4.4022,4.4096,4.4122,4.38,4.38,4.38,0,4.2462,4.2635,4.266,4.2786,4.2854,4.2842,4.2977,4.3042,4.3175,4.3222,4.3182,4.3425,4.3492,4.3685,4.3736,4.3787,4.3824,4.3769,4.3996,4.4017,4.4037,4.4107,4.4135,4.3805,4.3805,4.3804,4.3804,0,4.2717,4.2837,4.2932,4.3059,4.3138,4.3268,4.3314,4.3391,4.3398,4.3438,4.3601,4.3681,4.3804,4.3852,4.386,4.4047,4.4022,4.399,4.3916,4.4069,4.4136,4.4163,4.3813,4.3811,4.3809,4.3808,0,0,4.2935,4.3074,4.3109,4.3166,4.3278,4.3371,4.3502,4.3622,4.3687,4.378,4.3889,4.4054,4.4024,4.4094,4.4111,4.4199,4.4359,4.4155,4.4158,4.4189,4.4569,4.4592,4.4623,4.4351,4.4356,4.436,4.456,0,4.3126,4.3354,4.3381,4.3585,4.3696,4.3687,4.38,4.3882,4.3923,4.4024,4.4071,4.4187,4.4139,4.4181,4.4268,4.4321,4.4435,4.4307,4.4453,4.4458,4.4426,4.4658,4.4683,4.4867,4.4587,4.4591,4.4594,0,4.3379,4.3477,4.3692,4.3788,4.3836,4.3937,4.4049,4.4146,4.4239,4.4263,4.4342,4.4347,4.4482,4.4405,4.4592,4.4504,4.4566,4.4601,4.4609,4.4622,4.4534,4.4676,4.4927,4.4954,4.4636,4.4633,4.463,0,4.3514,4.3701,4.3853,4.3903,4.4019,4.4091,4.4143,4.423,4.4301,4.44,4.4446,4.4561,4.4623,4.4712,4.4748,4.4688,4.4932,4.4858,4.4956,4.4955,4.5006,4.5002,4.5269,4.5049,4.5049,4.5048,4.5047,0,4.3724,4.3855,4.3915,4.4008,4.4155,4.4186,4.4331,4.438,4.4458,4.4562,4.4562,4.466,4.4702,4.4806,4.4836,4.4986,4.5014,4.5038,4.5044,4.5037,4.5033,4.5076,4.5063,4.5055,4.5054,4.5052,4.5051,0,4.3899,4.3944,4.4109,4.4206,4.4234,4.4338,4.4421,4.4512,4.4553,4.4684,4.4717,4.4782,4.4905,4.495,4.51,4.512,4.5293,4.5289,4.5261,4.5262,4.5356,4.5346,4.5658,4.57,4.5454,4.5457,4.5459,0,4.4028,4.4128,4.4236,4.4305,4.436,4.4471,4.4543,4.4578,4.4653,4.4766,4.4844,4.4966,4.5065,4.5262,4.5323,4.5438,4.5436,4.5538,4.5453,4.5443,4.5436,4.5428,4.5438,4.5552,4.5555,4.5557,4.5559,0,4.4252,4.427,4.4373,4.4485,4.4571,4.4661,4.4749,4.4805,4.4853,4.4938,4.5063,4.514,4.5293,4.5414,4.5532,4.5587,4.5581,4.5585,4.5613,4.5606,4.5585,4.5596,4.5302,4.5577,4.5575,4.5574,4.5573,4.5572,4.4407,4.4496,4.4586,4.4701,4.477,4.4852,4.4942,4.4995,4.5099,4.5225,4.524,4.5375,4.5466,4.5623,4.5684,4.579,4.5762,4.5804,4.5814,4.5823,4.5829,4.557,4.5812,4.5811,4.5811,4.581,4.581,0,4.463,4.4688,4.4794,4.4915,4.5006,4.4993,4.5089,4.5166,4.5284,4.5369,4.5467,4.5611,4.5729,4.58,4.5918,4.5989,4.599,4.6019,4.6013,4.6026,4.5848,4.581,4.6017,4.6017,4.6017,4.6017,4.6017,4.6017,4.4757,4.4906,4.4934,4.5118,4.5175,4.5306,4.5362,4.5438,4.5506,4.5666,4.5763,4.5809,4.5889,4.6013,4.6121,4.6139,4.6182,4.6213,4.6229,4.606,4.6039,4.6018,4.5983,4.6223,4.6223,4.6398,4.64,4.6401]},{"header":{"parameterUnit":"m.s-1","parameterCategory":1,"la1":30.2991,"la2":30.254,"lo1":-89.0895,"lo2":-89.0444,"dy":0.0017,"dx":0.0017,"nx":28,"ny":28,"refTime":"2026-01-02T03:00:00:Z","depth":0,"parameterNumber":3,"parameterNumberName":"V-component_of_WINDS"},"data":[0,0,0,0,0,0,0,0,0,0,0,0,0,0,0,0,0,0,0,0,0,0,0,0,0,0,0,0,0,0,0,0,0,0,0,0,0,0,0,0,0,0,0,0,0,0,0,0,0,0,0,0,0,0,0,0,0,0,2.6323,2.6324,0,2.6447,2.6449,2.645,2.6457,2.6455,2.6454,2.6452,2.6578,2.6582,2.6587,0,0,0,0,0,0,0,0,0,0,0,0,0,2.6088,2.6093,2.6323,2.6324,2.6326,2.6447,2.6449,2.645,2.6457,2.6455,2.6453,2.6452,2.6576,2.6582,2.6587,0,0,0,0,0,0,0,0,0,0,0,0,0,2.6199,2.6094,2.6323,2.6344,2.6347,2.6447,2.6449,2.6451,2.6457,2.6455,2.6453,2.6451,2.6574,2.6581,2.6588,2.6675,0,0,2.661,2.6613,0,0,0,0,0,0,0,0,2.6193,2.6208,2.6339,2.6343,2.6346,2.6434,2.6412,2.6526,2.6458,2.6415,2.6452,2.645,2.6532,2.6542,2.657,2.668,2.6686,2.661,2.6614,2.6617,2.6619,0,0,0,0,0,0,0,2.6185,2.6203,2.6372,2.6341,2.6345,2.6346,2.636,2.6434,2.6484,2.6419,2.642,2.6434,2.6533,2.6563,2.6573,2.6688,2.661,2.6616,2.662,2.6623,2.6874,2.6877,0,0,0,0,0,0,2.6174,2.6196,2.6368,2.6376,2.6263,2.6352,2.6367,2.6408,2.6483,2.6493,2.6436,2.6434,2.6552,2.6565,2.6577,2.6683,2.6617,2.6624,2.6628,2.6872,2.6875,2.6877,0,0,0,0,0,0,2.6169,2.6189,2.6363,2.6286,2.6308,2.6359,2.6405,2.6412,2.6442,2.6496,2.6505,2.6458,2.6551,2.6568,2.665,2.6688,2.6627,2.6633,2.6869,2.6873,2.6876,2.6896,0,0,0,0,0,0,2.6162,2.6187,2.6221,2.6287,2.6313,2.6435,2.6407,2.6416,2.6454,2.6453,2.6519,2.6528,2.6551,2.664,2.6657,2.6696,2.6639,2.6866,2.6871,2.6875,2.6892,2.6899,2.6906,0,0,0,0,0,2.6154,2.6221,2.6223,2.6244,2.6356,2.6437,2.6451,2.6477,2.6457,2.6491,2.6526,2.6526,2.6681,2.6648,2.6668,2.6709,2.6864,2.6869,2.6875,2.6889,2.6898,2.6906,0,0,0,0,0,0,2.6158,2.623,2.6233,2.6324,2.6374,2.6438,2.6482,2.6486,2.6543,2.6539,2.6567,2.6582,2.6664,2.6695,2.6658,2.6797,2.677,2.6779,2.6774,2.6783,2.679,2.6781,2.6645,0,0,0,0,0,2.617,2.623,2.629,2.6364,2.639,2.6431,2.6467,2.6483,2.6536,2.6557,2.6598,2.6648,2.6708,2.6747,2.6806,2.6896,2.691,2.6934,2.6941,2.6947,2.6955,2.7004,2.7016,2.6896,2.6896,2.6895,0,0,2.6195,2.6242,2.6278,2.6367,2.6407,2.6468,2.6449,2.6515,2.656,2.6566,2.6647,2.6679,2.6737,2.6824,2.6864,2.6852,2.6991,2.6954,2.6958,2.6963,2.7011,2.7022,2.7033,2.6899,2.6899,2.6898,0,0,2.6271,2.6313,2.6379,2.6421,2.6483,2.651,2.6526,2.6589,2.661,2.6692,2.6698,2.6751,2.6855,2.6896,2.693,2.7021,2.7023,2.7039,2.7076,2.7124,2.7133,2.7142,2.7174,2.7185,2.7047,2.7047,2.7047,0,2.6294,2.6387,2.6413,2.6479,2.6517,2.6526,2.6593,2.6632,2.6709,2.6735,2.6721,2.685,2.689,2.6986,2.7008,2.7036,2.7055,2.7032,2.713,2.7139,2.7147,2.7178,2.719,2.7049,2.7049,2.7048,2.7048,0,2.6411,2.6475,2.6522,2.6597,2.664,2.6706,2.6742,2.6783,2.6794,2.6823,2.6905,2.6953,2.7021,2.7045,2.7057,2.7143,2.7133,2.7124,2.7098,2.716,2.7189,2.7201,2.7051,2.705,2.705,2.705,0,0,2.6494,2.6583,2.6599,2.6633,2.6702,2.6752,2.6818,2.6885,2.6919,2.6972,2.7027,2.7114,2.7106,2.7145,2.7161,2.7203,2.7271,2.7189,2.719,2.7202,2.7369,2.7375,2.7388,2.7273,2.7275,2.7277,2.7363,0,2.6578,2.6696,2.6721,2.6823,2.6882,2.6892,2.6949,2.6997,2.7025,2.7078,2.7109,2.717,2.7155,2.7178,2.722,2.7254,2.7305,2.7248,2.7324,2.7326,2.7309,2.7404,2.7411,2.749,2.7375,2.7377,2.7379,0,2.6691,2.6747,2.6855,2.6915,2.6941,2.6992,2.7056,2.7107,2.7161,2.7178,2.7222,2.7233,2.7301,2.7271,2.7364,2.7325,2.7357,2.7379,2.7382,2.739,2.7356,2.7414,2.7516,2.7528,2.7397,2.7396,2.7394,0,2.674,2.6843,2.692,2.6949,2.7022,2.7057,2.7089,2.7141,2.718,2.7234,2.7259,2.7321,2.7355,2.7402,2.7429,2.7405,2.752,2.7493,2.7536,2.7535,2.756,2.7558,2.7669,2.7581,2.7581,2.758,2.758,0,2.6831,2.6896,2.6943,2.6991,2.7064,2.7092,2.7164,2.7195,2.7241,2.7295,2.7306,2.7356,2.7389,2.7443,2.7465,2.7538,2.7553,2.7569,2.7574,2.7568,2.7566,2.7589,2.7584,2.7584,2.7583,2.7582,2.7582,0,2.6898,2.6932,2.7017,2.7079,2.7096,2.7148,2.72,2.7246,2.7274,2.7341,2.7359,2.7403,2.7467,2.7499,2.7578,2.7593,2.7676,2.7677,2.7658,2.766,2.7701,2.7696,2.783,2.7849,2.7749,2.775,2.7751,0,2.6953,2.7004,2.7071,2.7108,2.7141,2.72,2.7239,2.7269,2.7309,2.7374,2.7412,2.7477,2.753,2.7632,2.767,2.7731,2.7734,2.7777,2.7743,2.7735,2.7734,2.7731,2.7736,2.7783,2.7784,2.7784,2.7785,0,2.7048,2.7062,2.7119,2.7182,2.7229,2.7279,2.7329,2.7358,2.7395,2.744,2.7506,2.7547,2.7629,2.7692,2.7756,2.7787,2.7792,2.7795,2.7808,2.7803,2.7789,2.7797,2.7674,2.7792,2.7791,2.7791,2.779,2.779,2.7111,2.7156,2.721,2.7273,2.7314,2.736,2.7406,2.744,2.7496,2.7565,2.7578,2.7648,2.77,2.7786,2.7819,2.7874,2.7864,2.7883,2.7888,2.7892,2.7894,2.7781,2.7885,2.7885,2.7885,2.7885,2.7885,0,2.7205,2.7241,2.7298,2.7368,2.7417,2.7418,2.7473,2.7513,2.7575,2.7623,2.7676,2.7751,2.7813,2.7856,2.7918,2.7954,2.7957,2.7969,2.7967,2.7974,2.7899,2.7881,2.7965,2.7965,2.7965,2.7965,2.7965,2.7965,2.726,2.7337,2.7358,2.7454,2.7489,2.7558,2.7589,2.7631,2.767,2.7754,2.7806,2.7834,2.788,2.7946,2.8002,2.8013,2.8035,2.8047,2.8058,2.7987,2.7979,2.7971,2.7954,2.8052,2.8052,2.8128,2.8128,2.8129]}]]